Location: NJAA Observatory
(40.6819°N, 74.8979°W)
Time: 22:54:36
(UTC-05:00)

Courier 1B - All Passes

Search period start: 06 February 2016 00:00
Search period end: 16 February 2016 00:00
Orbit: 963 x 1209 km, 28.3° (Epoch: 05 February)

Date Brightness Start Highest point End Pass type
(mag) Time Alt. Az. Time Alt. Az. Time Alt. Az.
06 Feb - 11:28:19 10° SSW 11:34:05 23° SSE 11:39:42 10° ESE daylight
06 Feb - 13:20:58 10° SW 13:27:30 31° S 13:33:44 10° ESE daylight
06 Feb - 15:14:56 10° WSW 15:20:52 26° SSW 15:26:32 10° SE daylight
06 Feb - 17:10:54 10° SW 17:13:54 13° SSW 17:16:49 10° S daylight
07 Feb - 10:35:10 10° SSW 10:40:25 20° SSE 10:45:36 10° ESE daylight
07 Feb - 12:27:15 10° SW 12:33:48 30° S 12:40:07 10° ESE daylight
07 Feb - 14:20:56 10° WSW 14:27:15 29° S 14:33:17 10° SE daylight
07 Feb - 16:16:00 10° WSW 16:20:24 17° SSW 16:24:40 10° SSE daylight
08 Feb - 09:42:21 10° S 09:46:47 16° SSE 09:51:11 10° ESE daylight
08 Feb - 11:33:39 10° SW 11:40:06 29° S 11:46:22 10° ESE daylight
08 Feb - 13:27:00 10° WSW 13:33:35 31° S 13:39:53 10° SE daylight
08 Feb - 15:21:34 10° WSW 15:26:52 21° SSW 15:31:58 10° SSE daylight
09 Feb - 08:50:12 10° S 08:53:10 12° SSE 08:56:09 10° SE daylight
09 Feb - 10:40:11 10° SW 10:46:24 26° SSE 10:52:30 10° ESE daylight
09 Feb - 12:33:10 10° WSW 12:39:52 32° S 12:46:22 10° ESE daylight
09 Feb - 14:27:21 10° WSW 14:33:16 25° SSW 14:38:58 10° SE daylight
09 Feb - 16:24:33 10° SW 16:26:17 11° SSW 16:27:59 10° SSW daylight
10 Feb - 09:46:55 10° SSW 09:52:42 23° SSE 09:58:28 10° ESE daylight
10 Feb - 11:39:24 10° SW 11:46:09 32° S 11:52:44 10° ESE daylight
10 Feb - 13:33:15 10° WSW 13:39:38 28° SSW 13:45:45 10° SE daylight
10 Feb - 15:28:52 10° WSW 15:32:46 15° SSW 15:36:35 10° S daylight
11 Feb - 08:53:54 10° SSW 08:59:02 19° SSE 09:04:12 10° ESE daylight
11 Feb - 10:45:45 10° SW 10:52:25 31° S 10:58:59 10° ESE daylight
11 Feb - 12:39:18 10° WSW 12:45:56 31° S 12:52:23 10° SE daylight
11 Feb - 14:34:11 10° WSW 14:39:13 19° SSW 14:44:07 10° SSE daylight
12 Feb - 08:01:17 10° S 08:05:26 15° SSE 08:09:35 10° ESE daylight
12 Feb - 09:52:15 10° SW 09:58:41 28° SSE 10:05:07 10° ESE daylight
12 Feb - 11:45:26 10° WSW 11:52:13 32° S 11:58:51 10° ESE daylight
12 Feb - 13:39:50 10° WSW 13:45:37 23° SSW 13:51:14 10° SSE daylight
13 Feb - 07:09:37 10° SSE 07:11:50 11° SSE 07:14:04 10° SE daylight
13 Feb - 08:58:54 10° SW 09:04:59 25° SSE 09:11:07 10° ESE daylight
13 Feb - 10:51:40 10° WSW 10:58:28 33° S 11:05:13 10° ESE daylight
13 Feb - 12:45:41 10° WSW 12:51:57 27° SSW 12:58:04 10° SE daylight
13 Feb - 14:42:02 10° SW 14:45:05 13° SSW 14:48:05 10° S daylight
14 Feb - 08:05:46 10° SSW 08:11:18 22° SSE 08:16:56 10° ESE daylight
14 Feb - 09:57:59 10° SW 10:04:43 32° S 10:11:27 10° ESE daylight
14 Feb - 11:51:41 10° WSW 11:58:15 30° S 12:04:44 10° SE daylight
14 Feb - 13:46:57 10° WSW 13:51:31 17° SSW 13:56:00 10° SSE daylight
15 Feb - 07:12:57 10° SSW 07:17:41 18° SSE 07:22:31 10° ESE daylight
15 Feb - 09:04:28 10° SW 09:10:58 30° S 09:17:35 10° ESE daylight
15 Feb - 10:57:48 10° WSW 11:04:31 32° S 11:11:12 10° SE daylight
15 Feb - 12:52:26 10° WSW 12:57:54 21° SSW 13:03:17 10° SSE daylight
